Aero Club Brugge

Drongengoedweg poort 4 - Vliegveld Ursel

Start Volgende Theorie Cursus ULM: 19-05-2018 (Inschrijven)


Image

Geschiedenis

Zoals zoveel andere vliegclubs, verspreid over de gehele wereld, vind je ook in onze club mensen die zich verbonden voelen door hun passie en enthousiasme voor het vliegen... (Meer)

Image

Piloot voor 1 dag

Ervaar hoe het is om een vliegtuig te besturen.Tijdens deze dag maak je kennis met het vliegveld, de theorie en het vliegen zelf (GRATIS voor startende leerlingen).... (Meer)

Image

Activiteiten "Pilot's Bar"

 28-07-2018 : Summer BBQ
(Volg de link voor "alle" activiteiten)

Onze Opleidingen

ACB biedt opleidingen op maat naar ieders wens en budget.
Bekijk hieronder de mogelijkheden die we aanbieden.

Image

ULM Opleiding

*Opleiding op hoogste niveau.

*Voor wie houdt van sportief vliegen.

*Financieel spreidbaar.

*Advanced Training Course

Image

PPL Opleiding

*Opleiding door beroepspiloten.

*Democratische prijzen.

*Financieel spreidbaar.

* Eigen ATO.
Image

Lidmaatschap

Een gezellige en ongebonden clubsfeer. Ervaringen uitwisselen met collega-vliegers. Democratische prijzen aan de bar. Leuke uitstappen en evenementen...

(Meer info hier)

METARS :

2018/04/21 08:50 EBOS 210850Z 11004KT 080V160 9000 NSC 17/11 Q1023 NOSIG
2018/04/21 08:50 EBBR 210850Z VRB02KT 4600 HZ NSC 16/11 Q1023 BECMG 7000 NSW
2018/04/21 08:50 EBAW 210850Z 14003KT 080V180 4800 HZ NSC 17/12 Q1023 BECMG 6000 NSW

Wind Calculator * ACB Windy

Image

SPONSORS :

  • Ubicum - IT Solutions
  • Wetenschapspark 1 - 8400 Oostende
  • Hormann - Belgium
  • Professionele industrie- en prive poorten
  • Van Hulle Johan Voeg- en Restauratiewerken
  • Lindestraat 26 - 9980 Maldegem
  • Citro├źn G. Kerkaert
  • Sijseelsesteenweg 3 - 8340 Vivenkapelle - Damme
  • E.G.I Bvba
  • Kluizestraat 3 - 9910 Knesselare
  • Esqual - Arsi AB
  • Travergatan 2 - 441 38 Alingsas - Sweden